CW8081 Weather Reports


time (UTC)temp
C
wind
direction
speed
KPH
gust
KPH
rain 1hr
cm
rain 24hr
cm
rain mn
cm
humidity
%
barometer
mb
20260507130104 20 0 0.0 0.0 0.00 0.03 0.03 76 1016.7
20260507124104 20 288 0.0 0.0 0.00 0.03 0.03 75 1017.9
20260507123604 20 316 0.0 0.0 0.00 0.03 0.03 75 1017.9
20260507120104 20 304 0.0 0.0 0.00 0.03 0.03 77 1017.9
20260507114604 19 301 0.0 0.0 0.03 0.03 0.03 77 1017.9
20260507114104 20 301 0.0 0.0 0.03 0.03 0.03 76 1018.3
20260507113604 20 297 0.0 0.0 0.03 0.03 0.03 76 1018.3
20260507111104 20 296 0.0 3.2 0.03 0.03 0.03 74 1018.4
20260507110604 20 296 0.0 0.0 0.03 0.03 0.03 74 1018.4
20260507110105 20 296 0.0 0.0 0.03 0.03 0.03 74 1018.4
20260507104604 20 297 0.0 0.0 0.00 0.00 0.00 71 1018.3
20260507104104 20 297 0.0 0.0 0.00 0.00 0.00 70 1018.3
20260507103605 20 297 0.0 0.0 0.00 0.00 0.00 69 1018.3
20260507101104 20 280 0.0 0.0 0.00 0.00 0.00 67 1017.8
20260507100604 20 326 0.0 0.0 0.00 0.00 0.00 67 1017.8
20260507093104 20 0 0.0 0.0 0.00 0.00 0.00 66 1017.8
20260507091104 19 0 0.0 0.0 0.00 0.00 0.00 68 1017.4
20260507083604 18 0 0.0 0.0 0.00 0.00 0.00 74 1017.2
20260507083104 19 0 0.0 0.0 0.00 0.00 0.00 76 1016.6
20260507081604 18 0 0.0 0.0 0.00 0.00 0.00 77 1016.6
20260507080604 18 0 0.0 0.0 0.00 0.00 0.00 76 1016.6
20260507074104 18 352 0.0 0.0 0.00 0.00 0.00 75 1016.6
20260507073104 19 0 0.0 0.0 0.00 0.00 0.00 73 1016.6
20260507071604 19 236 0.0 0.0 0.00 0.00 0.00 74 1016.6
20260507070104 18 0 0.0 0.0 0.00 0.00 0.00 75 1016.6
20260507064604 18 0 0.0 0.0 0.00 0.00 0.00 74 1016.6
20260507064104 18 0 0.0 0.0 0.00 0.00 0.00 73 1016.6
20260507063104 18 0 0.0 0.0 0.00 0.00 0.00 73 1016.6
20260507060604 18 0 0.0 0.0 0.00 0.00 0.00 77 1016.0
20260507060105 17 5 0.0 0.0 0.00 0.00 0.00 77 1016.0
20260507054104 17 5 0.0 0.0 0.00 0.00 0.00 79 1016.0
20260507051108 16 5 0.0 0.0 0.00 0.00 0.00 84 1016.0
20260507050604 16 5 0.0 0.0 0.00 0.00 0.00 84 1016.0
20260507050104 15 5 0.0 0.0 0.00 0.00 0.00 85 1016.0
20260507043604 15 5 0.0 0.0 0.00 0.00 0.00 86 1015.9
20260507041604 13 5 0.0 0.0 0.00 0.00 0.00 86 1015.7
20260507040604 13 5 0.0 0.0 0.00 0.00 0.00 86 1015.7
20260507034605 13 5 0.0 0.0 0.00 0.00 0.00 85 1015.7
20260507033604 13 5 0.0 0.0 0.00 0.00 0.00 85 1015.4
20260507030104 13 5 0.0 1.6 0.00 0.00 0.00 85 1015.4
20260507024104 13 5 0.0 0.0 0.00 0.00 0.00 85 1015.2
20260507020104 14 5 0.0 1.6 0.00 0.00 0.00 85 1014.8
20260507014604 14 5 0.0 1.6 0.00 0.00 0.00 84 1014.8
20260507011104 15 5 0.0 0.0 0.00 0.00 0.00 84 1014.8
20260507010604 15 5 0.0 0.0 0.00 0.00 0.00 83 1014.8
20260507003604 15 5 0.0 0.0 0.00 0.00 0.00 84 1014.8
20260507001104 15 5 0.0 1.6 0.00 0.00 0.00 84 1014.8
20260507000105 15 5 0.0 1.6 0.00 0.00 0.00 84 1014.8
20260506234105 15 5 0.0 0.0 0.00 0.00 0.00 83 1015.0
20260506230105 15 5 0.0 0.0 0.00 0.00 0.00 82 1015.1
20260506221104 16 5 0.0 0.0 0.00 0.00 0.00 83 1015.2
20260506220104 16 5 0.0 0.0 0.00 0.00 0.00 83 1015.2
20260506211604 17 357 0.0 0.0 0.00 0.00 0.00 83 1015.2
20260506211106 17 0 0.0 0.0 0.00 0.00 0.00 83 1015.2
20260506210105 17 355 0.0 0.0 0.00 0.00 0.00 83 1015.2
20260506204604 17 0 0.0 0.0 0.00 0.00 0.00 84 1015.1
20260506204104 17 266 0.0 0.0 0.00 0.00 0.00 84 1015.1
20260506201604 17 356 0.0 0.0 0.00 0.00 0.00 84 1014.8
20260506200604 17 296 0.0 0.0 0.00 0.00 0.00 84 1014.8
20260506194604 17 0 0.0 0.0 0.00 0.00 0.00 84 1014.4
20260506193604 17 0 0.0 0.0 0.00 0.00 0.00 83 1014.4
20260506191604 17 0 0.0 0.0 0.00 0.00 0.00 83 1014.4
20260506183604 17 0 0.0 0.0 0.00 0.00 0.00 82 1013.9
20260506181604 18 0 0.0 0.0 0.00 0.00 0.00 81 1013.9
20260506180604 18 0 0.0 0.0 0.00 0.00 0.00 81 1013.7
20260506174104 18 0 0.0 0.0 0.00 0.00 0.00 80 1013.5
20260506173104 18 0 0.0 1.6 0.00 0.00 0.00 79 1013.4
20260506170604 20 0 0.0 0.0 0.00 0.00 0.00 76 1013.4
20260506164604 21 0 0.0 0.0 0.00 0.00 0.00 73 1013.4
20260506164104 21 0 0.0 0.0 0.00 0.00 0.00 72 1013.4
20260506163104 21 0 0.0 0.0 0.00 0.00 0.00 70 1013.4
20260506161604 22 0 0.0 0.0 0.00 0.00 0.00 67 1013.3
20260506151105 23 0 0.0 0.0 0.00 0.00 0.00 59 1013.4
20260506150104 24 0 0.0 1.6 0.00 0.00 0.00 57 1013.6
20260506144604 25 0 0.0 0.0 0.00 0.00 0.00 55 1013.6
20260506143104 26 0 0.0 1.6 0.00 0.00 0.00 51 1013.6
20260506134604 25 0 0.0 0.0 0.00 0.00 0.00 45 1013.7
20260506133604 25 0 0.0 0.0 0.00 0.00 0.00 48 1013.7